カタログに戻る

STARLINK-36130

運用中通信VLEO
NORAD 66931·PAYLOAD·🇺🇸 United States

打ち上げ Dec 7, 2025 から Vandenberg Space Force Base

Loading…

次のパス (今後24時間)

TLE

最新Source: CelesTrak SupGP

元期: Sep 15, 2026, 02:40 UTC

1 66931C 25286G   26258.11159722 -.00060447  00000+0 -17859-2 0  2581
2 66931  53.1572 194.8277 0001331  88.0603 193.7420 15.34421170    16

AllMySatでSTARLINK-36130をリアルタイム追跡

Download on the App Store